Dare County Gunnery Range, NC

5:23 AM EDT on August 18, 2017 (GMT -0400)
Dare County Gunnery Range

Weather History for K2DP - August, 2014

Change the Weather History Date:

Saturday, August 30, 2014

  Actual Average (KMQI) Record (KMQI)
Temperature  
Mean Temperature 78 °F -  
Max Temperature 85 °F 80 °F 95 °F (1978)
Min Temperature 71 °F 71 °F 55 °F (1982)
Cooling Degree Days 14    
Growing Degree Days 28 (Base 50)    
Moisture  
Dew Point 72 °F    
Average Humidity 82    
Maximum Humidity 94    
Minimum Humidity 62    
Precipitation  
Precipitation 0.07 in - - ()
Sea Level Pressure  
Sea Level Pressure 30.20 in    
Wind  
Wind Speed - (North)    
Max Wind Speed -    
Max Gust Speed -    
Visibility 11 miles    
Events Rain    
Averages and records for this station are not official NWS values.
T = Trace of Precipitation, MM = Missing Value Source: NWS Daily Summary

Daily Weather History Graph

Daily Weather History Graph

Search for Another Location

Airport or City:

Trip Planner

Search our weather history database for the weather conditions in past years. The results will help you decide how hot, cold, wet, or windy it might be!

Date:

Astronomy

Aug. 30, 2014 Rise Set
Actual Time 6:34 AM EDT 7:33 PM EDT
Civil Twilight 6:07 AM EDT 7:59 PM EDT
Nautical Twilight 5:36 AM EDT 8:30 PM EDT
Astronomical Twilight 5:04 AM EDT 9:02 PM EDT
Moon 11:08 AM EDT (8/30) 10:17 PM EDT (8/30)
Length of Visible Light 13h 51m
Length of Day
12h 59m
Waxing Crescent, 23% of the Moon is Illuminated
Aug 30
Waxing Crescent
Sep 2
First Quarter
Sep 8
Full
Sep 15
Last Quarter
Sep 24
New

Hourly Weather History & Observations

Time (EDT) Temp. Heat Index Dew Point Humidity Pressure Visibility Wind Dir Wind Speed Gust Speed Precip Events Conditions
12:56 AM 71.2 °F - 68.0 °F 89% 30.20 in 11.0 mi North - - N/A   Partly Cloudy
1:13 AM 71.6 °F - 68.0 °F 88% 30.20 in 12.0 mi North - - N/A   Mostly Cloudy
1:48 AM 71.6 °F - 68.0 °F 88% 30.20 in 11.0 mi North - - N/A   Mostly Cloudy
1:56 AM 71.8 °F - 68.4 °F 89% 30.19 in 12.0 mi North - - N/A   Mostly Cloudy
2:56 AM 72.7 °F - 69.3 °F 89% 30.19 in 12.0 mi North - - N/A   Mostly Cloudy
3:56 AM 72.7 °F - 69.6 °F 90% 30.18 in 12.0 mi North - - N/A   Mostly Cloudy
4:36 AM 71.6 °F - 69.8 °F 94% 30.19 in 4.0 mi North - - N/A   Partly Cloudy
4:42 AM 71.6 °F - 69.8 °F 94% 30.19 in 6.0 mi North - - N/A   Scattered Clouds
4:56 AM 71.4 °F - 69.3 °F 93% 30.19 in 8.0 mi North - - N/A   Partly Cloudy
5:56 AM 72.0 °F - 69.8 °F 93% 30.21 in 8.0 mi North - - N/A   Mostly Cloudy
6:56 AM 72.3 °F - 70.3 °F 93% 30.22 in 12.0 mi North - - N/A   Mostly Cloudy
7:56 AM 73.9 °F - 71.6 °F 92% 30.23 in 12.0 mi North - - N/A   Mostly Cloudy
8:56 AM 79.2 °F - 73.8 °F 83% 30.23 in 12.0 mi North - - N/A   Scattered Clouds
9:36 AM 80.6 °F 85.4 °F 73.4 °F 79% 30.23 in 12.0 mi North - - N/A   Mostly Cloudy
9:42 AM 80.6 °F 86.2 °F 75.2 °F 84% 30.23 in 12.0 mi North - - N/A   Mostly Cloudy
9:56 AM 81.5 °F 86.5 °F 72.9 °F 75% 30.23 in 12.0 mi North - - N/A   Mostly Cloudy
10:54 AM 82.4 °F 88.2 °F 73.4 °F 74% 30.23 in 12.0 mi North - - N/A   Mostly Cloudy
10:56 AM 81.3 °F 86.5 °F 73.6 °F 77% 30.23 in 12.0 mi North - - N/A   Mostly Cloudy
11:01 AM 80.6 °F 85.4 °F 73.4 °F 79% 30.23 in 12.0 mi North - - N/A Rain Light Rain
11:56 AM 79.5 °F - 75.2 °F 87% 30.23 in 12.0 mi North - - 0.07 in Rain Light Rain Showers
12:05 PM 80.6 °F 86.2 °F 75.2 °F 84% 30.23 in 12.0 mi North - - N/A   Mostly Cloudy
12:11 PM 80.6 °F 86.2 °F 75.2 °F 84% 30.23 in 12.0 mi North - - N/A   Mostly Cloudy
12:56 PM 83.3 °F 90.5 °F 74.5 °F 75% 30.22 in 12.0 mi North - - N/A   Mostly Cloudy
1:13 PM 84.2 °F 90.9 °F 73.4 °F 70% 30.21 in 12.0 mi North - - N/A   Mostly Cloudy
1:30 PM 84.2 °F 90.9 °F 73.4 °F 70% 30.21 in 12.0 mi North - - N/A   Mostly Cloudy
1:56 PM 84.2 °F 91.9 °F 74.8 °F 73% 30.20 in 12.0 mi North - - N/A   Scattered Clouds
2:18 PM 86.0 °F 93.4 °F 73.4 °F 66% 30.20 in 12.0 mi North - - N/A   Mostly Cloudy
2:42 PM 86.0 °F 91.8 °F 71.6 °F 62% 30.19 in 12.0 mi North - - N/A   Mostly Cloudy
2:56 PM 84.6 °F 91.4 °F 73.4 °F 69% 30.19 in 12.0 mi North - - N/A   Mostly Cloudy
3:56 PM 84.6 °F 90.0 °F 71.6 °F 65% 30.17 in 12.0 mi North - - N/A   Partly Cloudy
4:56 PM 83.7 °F 90.1 °F 73.2 °F 71% 30.17 in 12.0 mi North - - N/A   Partly Cloudy
5:56 PM 82.8 °F 88.4 °F 73.0 °F 72% 30.17 in 12.0 mi North - - N/A   Clear
6:56 PM 80.1 °F 83.6 °F 71.1 °F 74% 30.16 in 12.0 mi North - - N/A   Clear
7:56 PM 78.1 °F - 72.9 °F 84% 30.16 in 12.0 mi North - - N/A   Clear
8:24 PM 77.0 °F - 73.4 °F 89% 30.17 in 12.0 mi North - - N/A Rain Light Rain
8:56 PM 77.2 °F - 73.6 °F 89% 30.18 in 12.0 mi North - - N/A Rain Light Rain Showers
8:58 PM 77.0 °F - 73.4 °F 89% 30.18 in 12.0 mi North - - N/A   Partly Cloudy
9:56 PM 77.0 °F - 72.7 °F 86% 30.19 in 12.0 mi North - - N/A   Partly Cloudy
10:56 PM 75.0 °F - 72.0 °F 90% 30.20 in 12.0 mi North - - N/A   Scattered Clouds
11:56 PM 73.9 °F - 71.1 °F 91% 30.20 in 12.0 mi North - - N/A   Clear